• In Hungary
  • List of Countries
  • For 7 days
  • Water Temperature
  • Satellite Maps
  • Weather Map
  • News
  • Weather Widgets
  • user-avatar
    Login

    Hourly Weather Cleveland

    Today, 21 June, Thursday

    Time Temperature Precipitation Wind Pressure Humidity
    00:00 +24°C° 0 mm 3 mps 736 mmHg 58%
    01:00 +24°C° 0 mm 3 mps 736 mmHg 61%
    02:00 +22°C° 0 mm 3 mps 736 mmHg 64%
    03:00 +22°C° 0 mm 3 mps 736 mmHg 68%
    04:00 +21°C° 0 mm 3 mps 736 mmHg 71%
    05:00 +21°C° 0 mm 3 mps 736 mmHg 74%
    06:00 +20°C° 0 mm 3 mps 737 mmHg 77%
    07:00 +22°C° 0 mm 4 mps 737 mmHg 72%
    08:00 +23°C° 0 mm 4 mps 737 mmHg 67%
    09:00 +26°C° 0 mm 4 mps 737 mmHg 62%
    10:00 +27°C° 0 mm 4 mps 737 mmHg 57%
    11:00 +29°C° 0 mm 5 mps 737 mmHg 51%
    12:00 +30°C° 0 mm 5 mps 737 mmHg 46%
    13:00 +32°C° 0 mm 6 mps 736 mmHg 43%
    14:00 +33°C° 0 mm 7 mps 736 mmHg 41%
    15:00 +34°C° 0 mm 7 mps 736 mmHg 38%
    16:00 +34°C° 0 mm 6 mps 735 mmHg 42%
    17:00 +34°C° 0 mm 5 mps 735 mmHg 45%
    18:00 +33°C° 0 mm 4 mps 734 mmHg 48%
    19:00 +30°C° 0 mm 4 mps 735 mmHg 51%
    20:00 +28°C° 0 mm 4 mps 735 mmHg 55%
    21:00 +26°C° 0 mm 4 mps 735 mmHg 58%
    22:00 +24°C° 0 mm 3 mps 735 mmHg 62%
    23:00 +23°C° 0 mm 2 mps 735 mmHg 67%

    Tomorrow, 22 June, Friday

    Time Temperature Precipitation Wind Pressure Humidity
    00:00 +22°C° 0 mm 1 mps 735 mmHg 72%
    01:00 +20°C° 0 mm 2 mps 735 mmHg 73%
    02:00 +20°C° 0 mm 2 mps 735 mmHg 74%
    03:00 +20°C° 0 mm 3 mps 735 mmHg 75%
    04:00 +19°C° 0 mm 3 mps 736 mmHg 78%
    05:00 +19°C° 0 mm 3 mps 736 mmHg 80%
    06:00 +18°C° 0 mm 3 mps 736 mmHg 82%
    07:00 +20°C° 0 mm 3 mps 736 mmHg 77%
    08:00 +22°C° 0 mm 3 mps 736 mmHg 71%
    09:00 +25°C° 0 mm 4 mps 737 mmHg 66%
    10:00 +27°C° 0 mm 3 mps 736 mmHg 60%
    11:00 +28°C° 0 mm 3 mps 736 mmHg 54%
    12:00 +30°C° 0 mm 3 mps 736 mmHg 48%
    13:00 +31°C° 0 mm 2 mps 736 mmHg 46%
    14:00 +32°C° 0 mm 2 mps 735 mmHg 43%
    15:00 +33°C° 0 mm 1 mps 735 mmHg 40%
    16:00 +33°C° 0 mm 1 mps 734 mmHg 42%
    17:00 +33°C° 0 mm 1 mps 734 mmHg 45%
    18:00 +33°C° 0 mm 1 mps 733 mmHg 47%
    19:00 +31°C° 0 mm 2 mps 733 mmHg 51%
    20:00 +29°C° 0 mm 3 mps 733 mmHg 55%
    21:00 +27°C° 0 mm 5 mps 732 mmHg 60%
    22:00 +26°C° 1.1 mm 4 mps 733 mmHg 69%
    23:00 +25°C° 1.1 mm 4 mps 733 mmHg 77%

    Day after tomorrow, 23 June, Saturday

    Time Temperature Precipitation Wind Pressure Humidity
    00:00 +22°C° 1.1 mm 4 mps 733 mmHg 86%
    01:00 +22°C° 0 mm 4 mps 732 mmHg 87%
    02:00 +22°C° 0 mm 4 mps 731 mmHg 87%
    03:00 +22°C° 0 mm 4 mps 731 mmHg 88%
    04:00 +23°C° 1.1 mm 4 mps 731 mmHg 88%
    05:00 +23°C° 1.1 mm 5 mps 731 mmHg 89%
    06:00 +23°C° 1.1 mm 5 mps 730 mmHg 90%
    07:00 +26°C° 0 mm 6 mps 731 mmHg 82%
    08:00 +29°C° 0 mm 7 mps 731 mmHg 73%
    09:00 +33°C° 0 mm 8 mps 731 mmHg 64%
    10:00 +34°C° 0 mm 8 mps 731 mmHg 58%
    11:00 +37°C° 0 mm 8 mps 731 mmHg 52%
    12:00 +39°C° 0 mm 8 mps 731 mmHg 46%
    13:00 +38°C° 0 mm 7 mps 731 mmHg 49%
    14:00 +38°C° 0 mm 6 mps 730 mmHg 52%
    15:00 +36°C° 0 mm 5 mps 730 mmHg 54%
    16:00 +36°C° 0 mm 4 mps 730 mmHg 56%
    17:00 +35°C° 0 mm 4 mps 730 mmHg 58%
    18:00 +35°C° 0 mm 4 mps 730 mmHg 61%
    19:00 +33°C° 0.6 mm 4 mps 731 mmHg 70%
    20:00 +29°C° 0.6 mm 3 mps 731 mmHg 79%
    21:00 +27°C° 0.6 mm 3 mps 732 mmHg 88%
    22:00 +26°C° 0.2 mm 3 mps 732 mmHg 89%
    23:00 +25°C° 0.2 mm 4 mps 732 mmHg 91%

    24 June, Sunday

    Time Temperature Precipitation Wind Pressure Humidity
    00:00 +25°C° 0.2 mm 4 mps 733 mmHg 93%
    01:00 +24°C° 0 mm 3 mps 733 mmHg 94%
    02:00 +24°C° 0 mm 3 mps 732 mmHg 94%
    03:00 +24°C° 0 mm 2 mps 732 mmHg 95%
    04:00 +23°C° 0 mm 2 mps 733 mmHg 95%
    05:00 +22°C° 0 mm 3 mps 733 mmHg 95%
    06:00 +22°C° 0 mm 3 mps 734 mmHg 95%
    07:00 +25°C° 0 mm 3 mps 735 mmHg 89%
    08:00 +26°C° 0 mm 3 mps 735 mmHg 84%
    09:00 +28°C° 0 mm 3 mps 736 mmHg 78%
    10:00 +30°C° 0 mm 3 mps 736 mmHg 72%
    11:00 +31°C° 0 mm 3 mps 736 mmHg 66%
    12:00 +34°C° 0 mm 3 mps 736 mmHg 59%
    13:00 +35°C° 0 mm 3 mps 736 mmHg 57%
    14:00 +35°C° 0 mm 4 mps 736 mmHg 55%
    15:00 +36°C° 0 mm 4 mps 736 mmHg 53%
    16:00 +35°C° 0 mm 4 mps 736 mmHg 57%
    17:00 +35°C° 0 mm 5 mps 736 mmHg 61%
    18:00 +34°C° 0 mm 5 mps 736 mmHg 64%
    19:00 +32°C° 1.2 mm 6 mps 735 mmHg 70%
    20:00 +29°C° 1.2 mm 6 mps 735 mmHg 75%
    21:00 +28°C° 1.2 mm 7 mps 734 mmHg 80%
    22:00 +27°C° 6.4 mm 6 mps 735 mmHg 84%
    23:00 +26°C° 6.4 mm 6 mps 736 mmHg 88%

    25 June, Monday

    Time Temperature Precipitation Wind Pressure Humidity
    00:00 +24°C° 6.4 mm 6 mps 737 mmHg 93%
    01:00 +26°C° 1.3 mm 5 mps 736 mmHg 93%
    02:00 +26°C° 1.3 mm 5 mps 736 mmHg 93%
    03:00 +26°C° 1.3 mm 4 mps 736 mmHg 93%
    04:00 +26°C° 2.4 mm 4 mps 736 mmHg 94%
    05:00 +26°C° 2.4 mm 3 mps 737 mmHg 94%
    06:00 +26°C° 2.4 mm 3 mps 737 mmHg 94%
    07:00 +27°C° 0 mm 4 mps 737 mmHg 90%
    08:00 +28°C° 0 mm 5 mps 738 mmHg 87%
    09:00 +29°C° 0 mm 6 mps 738 mmHg 84%
    10:00 +30°C° 0 mm 7 mps 738 mmHg 77%
    11:00 +32°C° 0 mm 8 mps 737 mmHg 69%
    12:00 +34°C° 0 mm 9 mps 737 mmHg 62%
    13:00 +34°C° 0 mm 9 mps 737 mmHg 60%
    14:00 +35°C° 0 mm 9 mps 736 mmHg 57%
    15:00 +37°C° 0 mm 9 mps 736 mmHg 55%
    16:00 +37°C° 0 mm 8 mps 736 mmHg 58%
    17:00 +35°C° 0 mm 7 mps 736 mmHg 61%
    18:00 +35°C° 0 mm 6 mps 735 mmHg 63%
    19:00 +34°C° 0 mm 6 mps 736 mmHg 64%
    20:00 +33°C° 0 mm 7 mps 736 mmHg 64%
    21:00 +32°C° 0 mm 8 mps 737 mmHg 64%
    22:00 +31°C° 0.3 mm 8 mps 736 mmHg 65%
    23:00 +29°C° 0.3 mm 8 mps 736 mmHg 66%

    26 June, Tuesday

    Time Temperature Precipitation Wind Pressure Humidity
    00:00 +29°C° 0.3 mm 9 mps 736 mmHg 68%
    01:00 +28°C° 1.7 mm 7 mps 737 mmHg 73%
    02:00 +27°C° 1.7 mm 4 mps 737 mmHg 79%
    03:00 +26°C° 1.7 mm 2 mps 737 mmHg 84%
    04:00 +26°C° 0.1 mm 3 mps 738 mmHg 85%
    05:00 +25°C° 0.1 mm 3 mps 738 mmHg 85%
    06:00 +25°C° 0.1 mm 3 mps 738 mmHg 86%
    07:00 +26°C° 0.1 mm 4 mps 738 mmHg 84%
    08:00 +27°C° 0.1 mm 6 mps 738 mmHg 82%
    09:00 +28°C° 0.1 mm 7 mps 738 mmHg 81%
    10:00 +30°C° 0.1 mm 7 mps 738 mmHg 73%
    11:00 +33°C° 0.1 mm 8 mps 737 mmHg 66%
    12:00 +35°C° 0.1 mm 8 mps 737 mmHg 59%
    13:00 +37°C° 0.2 mm 8 mps 737 mmHg 57%
    14:00 +37°C° 0.2 mm 8 mps 736 mmHg 54%
    15:00 +38°C° 0.2 mm 8 mps 736 mmHg 51%
    16:00 +36°C° 0.1 mm 7 mps 736 mmHg 54%
    17:00 +36°C° 0.1 mm 6 mps 735 mmHg 57%
    18:00 +35°C° 0.1 mm 5 mps 735 mmHg 59%
    19:00 +34°C° 0.6 mm 7 mps 735 mmHg 60%
    20:00 +34°C° 0.6 mm 8 mps 735 mmHg 61%
    21:00 +33°C° 0.6 mm 9 mps 734 mmHg 61%
    22:00 +32°C° 11 mm 8 mps 735 mmHg 66%
    23:00 +31°C° 11 mm 8 mps 735 mmHg 70%
    Show more